Temp
63 63 64 64 64 64 64 64 64 64 64 64 64 63 63 63 63 58 59 67 66 70 68 62 64 62 61 58 57 52 46 41 44 46 48 52 54 55 56 53 57 57 56 59 60
63 63 63 64 64 63 64 64 63 63 63 63 63 63 63 63 57 58 69 72 71 70 63 61 58 60 56 54 54 50 43 47 49 49 48 52 50 52 53 54 52 55 59 61 60
62 63 63 63 63 63 63 63 63 63 63 63 63 63 62 60 60 61 71 72 71 68 65 63 62 59 52 51 50 47 47 49 52 53 52 52 52 53 49 51 53 53 57 56 53
62 62 62 62 63 63 63 63 63 63 63 63 63 62 62 58 51 61 70 70 70 65 64 61 59 53 49 48 52 46 52 53 55 54 52 51 55 54 53 54 55 53 53 49 48
61 61 61 61 62 62 63 63 63 62 62 63 63 62 58 55 60 63 67 68 64 63 61 59 55 53 48 49 50 47 50 53 55 54 53 53 53 52 55 54 55 53 49 46 46
61 60 60 61 61 62 62 63 63 62 62 63 63 62 55 51 63 65 64 63 63 62 58 59 58 58 52 50 49 50 50 53 54 53 52 52 48 49 53 53 52 49 45 44 44
60 60 60 60 61 61 62 62 62 62 62 63 63 60 54 59 62 62 64 61 63 62 59 59 60 56 54 50 53 51 49 51 51 50 51 52 48 50 52 52 49 44 43 43 43
60 60 60 60 60 61 61 62 61 61 62 63 62 55 55 62 61 62 62 61 62 63 62 61 61 58 53 54 51 45 45 42 48 49 50 50 46 53 53 51 45 42 40 42 42
60 59 59 60 60 60 60 61 60 62 63 62 54 52 54 64 59 60 60 60 59 60 60 65 59 51 52 45 41 41 37 38 45 49 48 47 45 50 48 49 41 38 38 40 40
59 59 59 60 60 60 61 61 61 60 60 61 61 51 56 56 58 60 58 61 57 56 55 54 48 43 41 41 36 38 35 38 40 45 46 43 46 47 43 41 37 36 36 38 39
59 59 60 60 60 61 60 55 53 51 51 54 54 53 56 57 59 56 58 58 55 53 45 45 43 40 43 45 43 42 38 38 41 46 43 43 43 42 40 38 36 36 36 37 38
60 60 60 60 60 60 58 51 53 54 49 56 55 56 58 59 53 55 59 53 49 45 45 42 39 47 47 45 44 40 37 37 42 44 44 41 41 38 38 36 36 36 36 36 37
59 59 59 59 60 58 55 55 58 55 47 52 53 53 55 58 54 53 58 52 47 43 43 40 46 48 47 42 41 38 37 37 41 40 39 38 37 36 36 37 38 37 37 37 36
59 59 59 59 56 57 54 59 60 57 41 45 49 52 54 56 49 55 56 53 46 45 43 42 46 46 41 41 43 36 43 42 40 36 32 36 29 34 34 33 35 35 33 34 34
59 59 59 59 55 54 58 58 57 56 29 47 46 56 53 51 48 48 53 51 44 44 45 42 42 42 41 43 45 41 42 40 38 33 31 30 29 33 33 30 32 33 34 33 34
59 58 58 57 57 56 57 58 58 41 30 41 46 45 46 48 47 48 48 51 49 44 42 43 45 45 45 43 44 44 40 37 32 31 24 30 32 31 32 34 32 33 34 35 34
58 58 57 61 55 58 57 55 40 34 46 40 40 43 43 42 43 45 43 41 39 35 35 40 42 43 45 41 41 40 37 29 25 23 25 28 27 34 37 35 36 35 34 34 34
58 58 57 61 61 59 54 46 34 41 41 43 42 41 40 42 41 41 39 38 42 39 35 36 34 42 46 42 40 37 38 28 19 20 23 30 26 34 34 34 37 38 35 34 33
57 56 56 59 59 57 48 39 39 41 46 42 42 37 37 41 41 39 37 37 42 41 38 34 36 41 42 42 42 35 33 36 28 20 21 27 31 32 33 32 32 33 33 32 33
55 54 55 60 58 54 45 41 43 49 49 46 41 41 35 37 38 37 35 41 42 44 43 41 32 38 39 41 40 38 40 31 28 16 13 25 26 31 30 31 32 31 32 33 34
52 47 53 60 55 49 40 41 47 51 52 48 45 42 39 38 39 35 37 41 44 40 45 40 38 33 38 35 35 34 33 32 32 26 18 14 25 34 36 33 32 33 35 34 34
49 43 51 56 46 46 43 46 49 48 50 49 47 46 42 41 38 37 37 41 45 45 40 42 36 27 33 35 36 36 35 35 29 25 24 25 30 36 35 36 36 36 36 35 35
45 45 49 49 41 42 43 44 45 44 46 45 45 46 43 41 38 39 39 40 44 44 42 42 33 21 27 32 33 32 34 35 32 27 22 21 26 36 34 35 35 35 35 35 35
43 38 41 44 43 44 42 41 40 43 43 44 43 44 42 38 41 38 37 39 40 40 45 46 35 30 29 31 33 30 32 32 31 22 25 31 35 31 33 34 33 35 35 35 34
42 39 42 36 39 41 44 42 40 37 41 43 38 40 41 35 36 36 36 36 39 42 39 41 34 30 29 30 29 29 31 31 29 35 29 34 32 33 36 35 34 35 35 35 34
37 37 38 37 42 40 40 38 38 39 39 37 36 39 39 35 37 32 34 36 37 36 36 35 27 27 22 29 29 28 30 29 32 29 27 29 30 38 33 33 34 35 35 34 33
38 39 37 39 38 37 36 35 37 41 39 41 41 38 37 39 40 38 39 40 39 36 32 31 26 23 21 23 24 25 25 29 29 30 31 27 35 26 28 33 33 33 32 33 33
MSLP
1019.01 1019.03 1019.00 1018.96 1018.89 1018.79 1018.66 1018.40 1018.21 1017.99 1017.79 1017.54 1017.38 1017.19 1016.97 1016.67 1016.12 1016.07 1015.56 1015.05 1014.91 1014.89 1014.94 1015.06 1015.10 1015.30 1015.53 1016.39 1016.97 1017.62 1018.55 1018.99 1018.16 1017.83 1017.07 1016.78 1016.65 1016.33 1016.18 1016.26 1016.07 1015.97 1016.15 1016.46 1016.47
1019.08 1019.00 1018.91 1018.89 1018.82 1018.69 1018.56 1018.38 1018.21 1017.93 1017.75 1017.55 1017.30 1017.13 1016.87 1016.58 1016.31 1015.67 1015.02 1014.82 1014.85 1014.98 1015.09 1015.21 1015.51 1015.61 1016.36 1016.84 1017.24 1017.77 1018.89 1018.41 1017.64 1017.19 1016.97 1016.85 1016.85 1016.75 1016.73 1016.89 1016.70 1016.60 1016.65 1016.91 1016.91
1019.09 1018.98 1018.85 1018.80 1018.77 1018.67 1018.53 1018.36 1018.19 1018.00 1017.72 1017.55 1017.30 1017.02 1016.81 1016.63 1016.33 1015.42 1015.00 1014.83 1014.93 1015.04 1015.08 1015.26 1015.58 1015.89 1016.65 1016.95 1017.37 1017.87 1018.08 1017.84 1017.33 1017.09 1016.99 1016.96 1016.90 1016.87 1017.18 1017.32 1017.32 1017.76 1017.75 1018.02 1018.37
1018.95 1018.96 1018.90 1018.80 1018.72 1018.67 1018.55 1018.42 1018.24 1017.99 1017.84 1017.52 1017.24 1016.99 1016.70 1016.61 1016.35 1015.27 1015.02 1014.96 1015.00 1015.12 1015.29 1015.54 1015.95 1016.46 1016.99 1017.26 1017.37 1017.84 1017.57 1017.60 1017.32 1017.16 1017.24 1017.22 1017.02 1017.08 1017.37 1017.47 1017.91 1018.54 1019.07 1019.68 1020.01
1018.73 1018.83 1018.86 1018.79 1018.70 1018.64 1018.61 1018.42 1018.30 1018.09 1017.84 1017.64 1017.30 1016.96 1016.71 1016.54 1015.70 1015.13 1015.09 1015.11 1015.18 1015.27 1015.48 1015.83 1016.22 1016.69 1017.12 1017.36 1017.56 1017.79 1017.61 1017.54 1017.35 1017.43 1017.37 1017.34 1017.46 1017.64 1017.35 1017.91 1018.50 1019.47 1020.37 1021.08 1021.44
1018.53 1018.56 1018.70 1018.76 1018.70 1018.60 1018.47 1018.43 1018.27 1018.12 1017.88 1017.57 1017.32 1017.09 1016.89 1016.43 1014.99 1015.03 1015.14 1015.23 1015.32 1015.50 1015.74 1015.90 1016.19 1016.52 1017.03 1017.39 1017.74 1017.79 1017.82 1017.63 1017.23 1017.23 1017.30 1017.52 1017.71 1017.84 1018.23 1018.42 1019.44 1020.33 1021.40 1022.01 1022.28
1018.37 1018.32 1018.41 1018.59 1018.64 1018.50 1018.41 1018.33 1018.23 1018.02 1017.74 1017.40 1017.21 1017.16 1016.84 1015.68 1014.96 1015.04 1015.05 1015.22 1015.33 1015.40 1015.80 1015.98 1016.10 1016.53 1017.08 1017.56 1017.76 1017.96 1018.21 1017.90 1017.30 1017.18 1017.28 1017.43 1017.92 1017.94 1018.15 1019.17 1020.49 1021.62 1022.37 1022.93 1023.21
1018.17 1018.18 1018.19 1018.27 1018.48 1018.47 1018.34 1018.20 1017.98 1017.76 1017.52 1017.31 1017.19 1017.18 1016.29 1015.12 1015.12 1015.12 1015.25 1015.46 1015.50 1015.56 1015.76 1016.05 1016.19 1016.83 1017.35 1017.76 1018.30 1018.63 1018.82 1018.68 1017.65 1017.47 1017.47 1017.79 1017.95 1017.89 1018.99 1019.84 1021.47 1022.60 1023.17 1023.54 1023.78
1017.75 1017.96 1017.98 1017.98 1018.22 1018.35 1018.25 1018.00 1017.70 1017.50 1017.44 1017.39 1017.43 1017.17 1016.07 1015.13 1015.28 1015.20 1015.29 1015.68 1015.83 1016.00 1016.21 1016.30 1016.71 1017.93 1018.20 1018.75 1019.48 1019.63 1019.44 1019.15 1018.26 1017.70 1017.76 1018.18 1018.60 1018.76 1019.69 1020.69 1022.50 1023.46 1024.00 1024.17 1024.19
1017.29 1017.53 1017.77 1017.79 1017.85 1018.10 1018.13 1017.84 1017.52 1017.53 1017.65 1017.58 1017.42 1017.53 1015.77 1015.21 1015.26 1015.36 1015.43 1015.74 1016.18 1016.52 1016.84 1017.18 1018.00 1018.68 1019.31 1019.46 1019.69 1019.58 1019.75 1019.36 1018.83 1018.46 1018.35 1019.00 1019.35 1020.02 1021.38 1021.97 1023.62 1024.44 1024.79 1024.88 1024.87
1016.89 1017.04 1017.37 1017.61 1017.65 1017.77 1018.05 1018.03 1018.07 1017.90 1017.73 1016.48 1016.14 1015.70 1015.22 1015.34 1015.37 1015.59 1015.63 1015.88 1016.35 1017.01 1017.63 1018.08 1018.72 1018.63 1018.51 1018.66 1018.78 1019.02 1019.41 1019.38 1018.88 1018.72 1019.03 1019.35 1020.10 1021.19 1022.58 1023.42 1024.41 1025.08 1025.36 1025.51 1025.46
1016.35 1016.70 1016.92 1017.43 1017.62 1017.63 1017.92 1018.10 1017.21 1017.10 1016.70 1015.53 1015.68 1015.59 1015.06 1015.00 1015.48 1015.70 1015.76 1016.24 1016.73 1017.42 1018.04 1018.84 1018.55 1017.87 1018.23 1018.72 1018.99 1019.27 1019.54 1019.57 1019.27 1019.06 1019.32 1019.73 1020.58 1021.95 1023.02 1024.08 1024.76 1025.42 1025.77 1026.00 1026.09
1015.77 1016.20 1016.71 1017.12 1017.61 1017.70 1017.53 1017.08 1016.81 1016.90 1016.91 1015.14 1014.89 1014.78 1014.86 1015.10 1015.03 1015.30 1015.75 1016.30 1016.80 1017.75 1018.16 1018.17 1017.67 1017.67 1018.23 1018.74 1019.16 1019.37 1019.50 1019.58 1019.63 1019.69 1019.97 1020.54 1021.04 1022.15 1023.49 1024.22 1025.04 1025.77 1026.17 1026.50 1026.56
1015.09 1015.61 1016.32 1017.14 1017.75 1017.26 1016.88 1016.11 1016.44 1016.97 1016.96 1014.96 1014.50 1013.87 1014.28 1014.68 1015.22 1015.06 1015.20 1015.75 1016.80 1017.23 1018.18 1018.15 1017.38 1017.63 1018.12 1018.34 1018.57 1019.22 1018.83 1019.29 1019.86 1020.60 1021.14 1021.34 1021.97 1022.12 1023.22 1024.28 1024.96 1025.58 1026.40 1026.84 1027.22
1014.45 1014.91 1015.64 1016.45 1016.25 1016.55 1015.90 1015.61 1016.26 1016.99 1016.81 1013.90 1014.21 1014.16 1014.25 1014.79 1015.15 1015.56 1015.51 1015.59 1016.31 1017.03 1017.78 1017.26 1017.37 1017.58 1017.74 1017.68 1018.21 1018.82 1019.06 1019.82 1020.27 1021.07 1021.75 1022.21 1022.98 1021.99 1023.31 1024.70 1025.67 1026.04 1026.59 1026.78 1026.95
1013.48 1014.25 1015.01 1016.08 1016.07 1015.74 1015.96 1015.75 1016.27 1017.43 1014.60 1013.96 1013.94 1014.19 1014.80 1015.03 1015.46 1015.80 1015.83 1015.79 1016.26 1017.00 1017.28 1017.19 1017.09 1017.23 1017.14 1017.62 1017.96 1018.85 1019.66 1020.81 1021.70 1022.25 1022.48 1021.96 1022.55 1022.18 1022.86 1023.42 1024.79 1025.77 1026.49 1026.82 1027.22
1012.42 1013.17 1014.04 1014.42 1014.44 1015.32 1015.80 1015.83 1016.78 1015.41 1012.81 1013.45 1013.74 1014.00 1014.58 1015.26 1015.81 1015.83 1016.10 1016.25 1016.40 1017.18 1017.30 1017.18 1016.96 1016.79 1016.90 1017.73 1018.34 1018.83 1019.94 1021.62 1022.77 1023.46 1022.98 1022.68 1023.09 1020.79 1021.27 1022.59 1023.50 1024.58 1025.85 1026.69 1027.11
1011.49 1012.08 1012.57 1013.11 1013.86 1014.51 1015.50 1015.37 1014.37 1011.50 1012.39 1012.63 1013.23 1014.11 1014.50 1014.90 1015.59 1016.03 1016.37 1016.61 1016.35 1016.42 1016.89 1016.94 1017.00 1016.35 1016.41 1016.93 1017.65 1018.95 1019.53 1021.05 1022.40 1023.85 1023.52 1023.16 1022.59 1021.27 1021.98 1022.50 1022.85 1023.77 1025.04 1026.23 1026.85
1010.66 1011.02 1011.15 1011.56 1012.71 1013.49 1014.12 1012.70 1011.43 1010.75 1011.02 1012.36 1013.40 1013.85 1014.42 1014.35 1014.88 1015.80 1016.13 1016.00 1015.52 1015.65 1015.65 1016.09 1016.19 1016.27 1016.46 1016.67 1017.38 1019.19 1019.96 1020.48 1022.37 1024.19 1024.13 1022.39 1021.40 1021.28 1021.95 1022.85 1023.42 1024.16 1024.93 1025.53 1026.21
1010.08 1010.38 1009.80 1010.54 1011.63 1012.10 1012.12 1010.87 1010.40 1010.21 1010.32 1011.20 1011.64 1012.14 1013.02 1013.96 1014.71 1015.20 1015.31 1014.17 1014.42 1014.34 1014.43 1015.03 1016.21 1016.73 1017.11 1017.19 1017.99 1018.28 1019.45 1020.95 1022.40 1023.95 1023.90 1022.19 1021.79 1020.98 1021.74 1022.50 1023.65 1024.57 1025.49 1025.65 1025.70
1009.53 1009.70 1008.74 1009.59 1010.74 1010.31 1009.19 1009.53 1009.47 1009.31 1009.46 1009.88 1010.48 1011.21 1011.89 1012.87 1013.50 1013.97 1013.77 1013.50 1013.41 1014.02 1014.34 1014.96 1015.60 1017.65 1017.60 1017.70 1017.94 1019.08 1019.41 1020.51 1021.56 1022.71 1023.14 1022.87 1020.55 1019.48 1020.36 1021.61 1022.98 1023.76 1024.34 1024.96 1025.51
1008.71 1009.41 1009.08 1008.66 1009.31 1008.35 1008.46 1008.91 1009.31 1008.70 1009.22 1009.09 1009.60 1009.91 1010.63 1011.58 1012.50 1013.16 1013.18 1012.65 1012.41 1012.92 1014.35 1014.65 1015.56 1017.46 1017.51 1017.63 1017.81 1018.08 1018.54 1019.33 1020.88 1022.14 1022.58 1022.48 1019.59 1019.44 1019.70 1020.63 1022.01 1022.86 1023.71 1024.10 1024.74
1008.11 1008.98 1009.18 1009.18 1007.79 1008.06 1008.44 1008.75 1008.88 1008.91 1008.73 1008.86 1009.38 1009.29 1010.08 1010.22 1011.54 1012.09 1012.41 1012.90 1012.75 1012.79 1013.16 1014.20 1015.55 1017.49 1018.31 1018.73 1018.46 1018.49 1018.68 1018.95 1019.64 1020.55 1021.06 1022.22 1019.80 1019.87 1020.01 1020.84 1021.50 1022.79 1023.17 1023.66 1024.26
1008.11 1008.88 1009.55 1009.25 1008.67 1008.10 1008.34 1008.40 1008.76 1008.93 1009.07 1008.98 1009.15 1009.24 1009.87 1010.66 1010.34 1011.81 1012.86 1013.44 1013.13 1013.36 1013.31 1013.64 1015.12 1016.10 1017.09 1017.45 1017.90 1019.04 1019.00 1019.14 1019.45 1020.17 1020.35 1019.89 1019.59 1020.07 1020.53 1020.76 1021.57 1022.40 1022.81 1023.37 1023.90
1007.10 1007.97 1007.94 1008.58 1008.22 1007.98 1007.62 1008.03 1008.39 1008.74 1009.25 1009.32 1009.77 1009.54 1009.53 1010.80 1011.40 1012.00 1012.77 1013.69 1013.98 1014.03 1014.24 1014.67 1015.95 1017.12 1017.83 1018.13 1018.16 1018.45 1018.52 1018.84 1019.26 1019.09 1019.45 1019.12 1019.40 1019.79 1019.99 1020.51 1021.14 1021.85 1022.42 1022.96 1023.60
1007.71 1008.36 1008.85 1008.22 1007.77 1008.13 1007.77 1007.78 1008.12 1008.54 1008.76 1009.13 1009.41 1009.75 1010.23 1010.86 1011.38 1012.16 1012.49 1013.03 1013.57 1014.82 1015.25 1015.94 1017.47 1018.45 1019.60 1019.76 1019.64 1019.18 1018.65 1019.28 1019.18 1019.18 1019.59 1019.75 1019.10 1019.38 1019.87 1020.40 1021.24 1021.78 1022.36 1022.89 1023.23
1009.06 1008.93 1008.63 1007.69 1008.00 1008.06 1007.57 1007.94 1008.14 1008.78 1009.18 1009.22 1009.38 1010.27 1010.94 1011.23 1012.01 1012.26 1012.25 1012.73 1013.50 1014.44 1015.73 1016.81 1017.82 1019.29 1020.56 1020.66 1020.30 1019.86 1017.92 1018.61 1019.16 1019.30 1019.34 1019.55 1018.77 1019.97 1020.35 1020.72 1020.97 1021.45 1022.04 1022.49 1022.89
Wind_Speed
2 3 3 4 5 6 7 7 8 10 11 12 12 12 12 13 11 2 2 2 2 4 1 1 4 4 4 4 4 3 6 1 4 5 2 2 5 1 2 2 4 2 1 4 5
4 4 5 6 6 7 8 9 9 10 11 12 12 12 13 13 3 2 2 1 1 6 2 3 2 3 4 3 3 6 4 7 3 3 1 3 0 3 3 6 2 3 4 9 6
6 7 7 7 8 9 9 9 10 11 12 13 13 11 11 7 4 2 4 1 3 1 3 3 4 3 3 2 1 2 5 3 2 3 0 3 4 2 1 5 5 3 9 9 9
6 7 8 8 8 9 9 9 10 11 13 13 11 11 10 2 3 1 2 2 4 2 3 4 5 3 2 0 1 1 3 4 2 1 2 2 4 5 5 4 4 4 6 6 11
6 7 8 7 8 9 10 10 10 11 12 11 9 8 2 3 7 1 4 5 4 3 3 3 3 4 2 2 1 2 2 2 3 4 5 3 5 4 9 4 8 10 12 11 10
7 7 7 7 7 8 9 10 10 11 12 10 7 7 1 3 2 3 5 3 3 4 3 4 6 5 3 2 2 1 2 7 7 3 3 4 2 2 5 6 10 11 10 9 10
9 8 7 7 7 8 8 9 11 11 11 9 4 2 2 11 2 2 2 2 4 3 4 2 4 3 4 1 1 2 5 6 4 1 4 6 2 6 1 9 9 9 7 8 8
10 9 7 6 7 7 8 10 11 11 8 4 1 1 7 1 1 2 2 3 3 3 3 2 3 4 2 3 6 3 4 4 2 2 2 3 8 4 9 9 8 8 8 8 10
10 10 9 7 7 7 8 10 11 4 1 2 1 2 8 2 2 2 2 4 3 3 5 4 6 4 4 5 4 5 3 4 8 3 1 3 7 1 13 8 7 7 7 7 8
11 10 9 8 6 5 9 10 3 2 2 2 1 3 2 4 2 3 2 5 4 4 4 6 5 4 3 4 6 6 4 4 6 1 4 3 10 5 10 10 7 7 7 7 10
12 11 10 9 5 2 4 3 2 2 1 9 6 3 3 1 0 1 2 4 4 5 5 1 4 9 12 9 3 5 5 5 3 3 3 6 7 4 5 7 7 6 6 6 8
13 12 10 8 5 4 3 2 4 3 7 10 5 6 2 5 4 3 4 5 4 5 5 4 7 9 4 6 5 3 3 5 5 2 4 4 7 4 5 3 4 6 6 6 5
14 12 10 8 5 3 4 6 2 1 3 7 6 6 6 7 6 9 10 4 4 6 7 8 6 6 7 4 6 5 6 5 6 2 0 5 6 5 3 4 5 4 3 4 5
16 14 11 9 4 4 5 7 6 1 4 8 6 6 4 7 4 2 5 7 3 11 8 7 4 6 5 6 7 4 7 5 4 3 4 2 6 4 4 4 4 6 5 5 5
17 16 16 17 4 4 4 9 7 3 8 3 4 1 2 6 6 1 1 4 8 8 8 7 6 6 5 5 7 5 5 6 3 4 3 2 1 7 4 3 5 6 5 5 5
20 18 18 10 2 2 5 7 4 4 15 4 5 6 6 2 2 3 3 3 4 5 1 4 1 5 7 3 4 9 6 7 5 3 0 6 7 5 5 4 5 4 6 6 6
22 21 18 10 8 8 5 4 4 12 0 7 6 7 4 6 4 5 7 7 7 6 6 1 4 2 3 7 2 4 6 2 4 2 6 1 2 9 5 3 8 14 10 8 7
24 24 21 13 8 14 4 5 12 10 10 3 4 4 9 8 6 6 7 7 6 3 4 8 4 10 6 5 8 6 7 7 8 4 4 2 7 7 2 3 6 11 10 8 7
18 12 10 14 13 11 7 18 16 8 8 10 4 5 5 5 7 6 8 8 10 13 8 7 4 2 2 3 4 4 4 3 7 2 2 5 5 2 2 1 4 9 9 10 8
4 7 12 17 15 12 13 21 15 10 8 6 16 9 13 9 9 9 11 7 7 12 4 7 3 1 2 3 5 5 6 4 3 1 6 4 5 6 5 7 6 8 10 8 8
4 3 3 16 12 10 13 14 18 6 8 12 15 10 8 10 10 8 10 3 7 7 7 6 5 1 4 6 10 3 3 5 5 4 6 3 6 6 7 11 13 12 12 9 9
6 5 1 13 12 3 16 12 12 9 6 8 3 5 11 13 10 8 12 6 8 11 11 7 6 5 7 3 2 2 7 7 6 6 3 1 8 3 3 11 13 12 10 8 7
5 4 1 2 10 12 2 7 8 8 9 9 9 6 3 11 8 7 7 1 5 8 12 10 2 3 7 2 2 4 5 3 5 4 8 6 8 3 5 7 8 9 9 8 8
4 3 1 3 3 15 14 11 9 3 3 3 5 2 7 2 2 8 6 3 2 2 3 5 5 8 10 7 6 5 6 6 6 5 6 14 13 3 4 7 7 8 6 7 7
3 4 4 5 12 8 16 11 17 10 4 5 2 4 7 5 4 5 2 4 2 2 4 3 4 3 4 3 3 3 7 12 10 14 11 11 14 7 10 9 10 8 6 5 6
5 4 1 2 5 11 10 9 17 6 10 6 6 9 5 5 7 10 9 4 5 3 3 2 3 4 1 3 4 3 6 6 13 2 3 3 13 7 3 4 5 9 7 8 8
1 0 2 6 6 8 6 8 14 10 3 4 12 9 13 15 4 2 3 4 8 10 8 7 8 5 4 2 3 10 9 15 6 6 9 12 14 4 5 8 8 8 7 8 8
Wind_Direction
41 13 7 5 7 2 359 2 1 359 355 352 349 344 341 337 322 174 260 226 233 165 107 107 44 19 44 71 62 112 60 163 223 156 221 324 22 291 317 293 340 328 145 325 338
331 338 346 348 351 355 354 355 354 355 350 346 344 338 336 339 336 292 310 335 96 161 97 110 87 44 43 30 29 85 106 219 212 200 250 325 146 319 16 351 290 322 344 359 357
321 327 334 340 342 344 347 348 348 347 347 343 337 334 328 327 346 324 345 320 148 142 97 96 94 71 71 27 52 144 180 207 255 236 309 302 305 189 142 288 234 335 311 357 25
309 314 322 329 333 335 337 341 344 344 342 339 336 327 321 311 301 350 337 75 137 111 83 73 47 62 81 206 123 69 237 189 285 131 67 280 313 307 172 222 98 59 49 40 28
289 301 311 319 322 326 328 336 339 340 337 336 335 330 323 30 256 81 85 102 96 107 101 114 116 126 176 193 105 173 263 205 264 275 252 328 243 249 272 36 77 76 54 41 29
272 282 296 306 310 316 324 330 331 328 330 327 326 320 93 249 135 117 120 112 126 116 129 125 173 185 145 163 167 272 303 290 286 221 231 217 283 161 71 98 77 63 55 41 35
260 266 274 291 299 306 319 322 319 318 322 322 328 345 96 239 108 144 132 119 163 149 141 179 147 119 131 123 347 7 335 322 263 300 200 157 250 224 66 84 79 60 56 57 37
255 257 260 271 283 298 311 316 313 312 313 343 75 19 247 26 166 137 113 58 79 47 97 103 122 97 75 116 22 43 55 348 310 0 3 148 259 265 46 71 65 51 37 35 30
243 248 250 250 269 294 310 317 315 308 63 92 0 93 267 113 160 163 137 145 87 50 40 75 67 90 42 96 10 6 229 207 314 26 144 91 267 288 7 44 81 56 40 34 23
231 236 244 245 251 295 310 306 306 60 304 272 294 20 222 216 157 132 55 114 111 99 51 54 56 88 51 110 217 199 214 241 239 355 26 340 274 345 17 72 78 63 45 37 39
228 228 232 237 233 265 343 345 360 297 243 200 200 223 146 105 129 62 143 97 95 70 151 23 123 208 197 200 161 136 172 213 261 201 216 240 259 3 47 66 73 66 60 51 43
218 221 214 222 216 150 114 236 244 141 301 231 231 278 206 175 123 207 129 144 150 171 118 54 230 230 157 162 177 156 169 246 278 283 182 307 279 67 41 55 103 116 91 72 51
211 208 204 195 197 175 181 212 155 159 262 277 193 190 196 151 210 196 152 143 153 144 192 176 214 132 165 164 157 202 183 193 214 338 338 333 291 189 63 106 89 69 86 69 73
204 195 180 163 181 158 216 206 164 155 282 257 219 246 123 147 238 143 179 146 177 190 166 233 253 175 175 197 147 212 206 161 168 125 228 34 283 288 185 153 143 140 128 111 74
201 188 171 177 142 179 243 141 131 72 280 213 163 61 152 166 131 296 140 60 168 172 140 235 179 185 188 199 159 216 116 142 127 115 67 294 243 258 115 221 216 197 165 145 139
198 188 169 194 209 223 143 124 93 77 243 207 134 158 130 153 123 116 129 62 141 129 206 231 235 179 201 101 159 144 81 46 45 91 313 225 175 271 186 212 167 175 183 174 168
201 189 176 178 203 146 164 119 151 215 125 193 182 166 165 161 170 162 166 172 161 134 207 157 210 194 152 92 56 111 104 331 343 1 230 107 163 242 165 176 190 180 183 183 182
206 193 197 198 160 147 185 172 206 223 212 95 123 115 175 155 201 174 140 189 242 143 131 169 201 170 185 189 168 179 164 161 214 204 259 316 234 270 306 305 217 162 162 170 181
211 206 199 191 166 151 181 205 213 184 176 143 107 135 230 208 157 143 190 198 200 188 172 158 255 67 73 126 126 188 186 157 103 54 34 233 275 261 82 46 122 147 160 183 182
209 215 211 180 171 170 203 214 221 192 142 155 199 176 180 193 160 185 174 195 204 185 189 205 98 48 130 89 37 138 158 86 2 196 262 273 272 240 220 203 172 178 203 204 194
181 215 222 171 167 199 208 219 224 205 170 179 211 185 187 175 183 198 196 222 198 173 142 152 112 247 122 202 171 138 175 68 121 141 179 278 250 208 211 176 186 203 208 201 199
146 214 266 156 204 208 215 199 215 190 186 201 196 160 175 170 172 204 195 234 162 146 163 192 131 162 196 131 98 168 183 156 157 218 256 195 257 24 251 175 181 203 207 201 187
169 162 127 325 213 218 163 199 208 173 200 174 189 203 234 168 168 180 184 16 190 159 160 180 189 77 354 38 28 205 193 158 102 78 191 163 264 7 81 156 195 196 207 191 196
140 161 217 170 315 221 208 217 209 218 207 182 154 149 129 239 39 158 152 192 98 153 76 117 142 164 202 184 139 181 201 187 157 176 175 232 258 178 199 198 193 215 193 204 205
152 205 162 198 211 219 191 189 193 181 203 182 179 215 156 168 160 157 118 134 82 101 60 130 183 103 46 70 93 207 196 186 189 219 208 246 232 183 206 205 203 192 205 206 222
127 144 250 160 149 187 188 199 199 188 162 195 158 186 192 160 199 184 143 185 150 42 103 19 157 119 30 358 40 271 234 187 221 177 223 228 260 173 191 196 182 217 217 235 237
335 100 282 167 172 183 198 181 201 185 230 207 191 169 199 205 139 65 94 135 148 159 158 152 136 119 231 59 42 280 188 197 179 197 172 213 237 142 197 212 217 232 223 225 234